Showing default

UMBRA-08, 58292

Orbit data source: Space-Track

UMBRA-08, 58292 is a payload satellite owned by Umbra Labs (US) in SSO that was launched on Sat, 11 Nov 2023 UTC via an FALCON 9 launch vehicle from the Air Force Western Test Range (AFWTR). Payload-class satellites include a variety of spacecraft equipped with specific instruments for various scientific and technological missions. These include communications satellites like Starlink; space stations such as the ISS; scientific satellites like the Hubble; Earth observation satellites from companies like Planet Labs, Umbra, and HawkEye 360; GPS; miniature CubeSats for education and research; and military/defense satellites.

Loading next visibility...
Identifier
58292, 2023-174AN
Orbit
SSO
Last TLE update
19 hours ago
Origin
Manufacturer
Umbra Labs
Mission
Operational Commercial Radar Imaging
Bus & Motor
ESPASTAR, Unknown motor
Mass
84 kg wet, 79 kg dry
Launch date (UTC)
2023-11-11 (2 years ago)
Launch vehicle
FALCON 9
Launch site
Air Force Western Test Range (AFWTR)
Object type
Payload
Rocket body
Debris
Shape & HBR
Box + 2 Pan + 1 Dish, 3.8 m
Radar Cross Section
0.929 m², Large (>1 m²)

Expand to show TLE details & history

TLE from 19 hours ago
0 UMBRA-08
1 58292U 23174AN  25187.19144387  .00039729  00000-0  11592-2 0  9993
2 58292  97.4076 262.5399 0002825 155.7626 204.3751 15.35229926 92070
Epoch: 2025-07-06T04:35Z
TLE epoch observation values (Epoch: 2025-07-06T04:35:40.75Z)
Latitude
0.00001°
Longitude
-90.79857°
Altitude
465.109 km
Speed
7.633 km/s
True Right ascension
17h 30m 09s
True Declination
0° 00' 00"
Sunlit
Object was in full shadow at epoch
Visualization orbit readout
Latitude
32.53727°
Longitude
94.7457°
Altitude
462.454 km
Speed
7.64 km/s
Apparent Right ascension
03h 14m 33s
Apparent Declination
-3° 03' 20"
Sunlit
Object is in daylight
Visualization observer readout
Local Sidereal Time
12:00:41
Azimuth
297.186° NW
Elevation
-32.821°
Doppler factor
1
Orbital elements
Apogee altitude
459.114 km
Perigee altitude
455.252 km
Semi-major axis
6,835.32 km
Eccentricity
0.00028
Inclination
97.4076°
RAAN
262.5399°
Arg. of periapsis
155.7626°
True anomaly
Unknown
Mean anomaly
204.3751°
Eccentric anomaly
Unknown
Mean motion
3.84065 °/min
Orbital period
93.73 mins
BSTAR
0.0011592
Loading maneuver chart data...
Loading SW <> Apogee altitude chart data...
Loading historical data...
Loading historical data...
Loading historical data...
Loading historical data...
Loading historical data...
Loading historical data...
Loading historical data...

UMBRA-08 Visibility forecast

Observer location: undefined°, undefined°

Span
Click to sort rows by Start time (UTC) header in descending order
Start Az.
Max El. time (UTC)
Max El. Az.
Max El.
End time (UTC)
End Az.
4 mins2025-07-07 05:46:17.756Z231.189° WSW2025-07-07 05:47:17.756Z256.985° W22.195°2025-07-07 05:50:17.756Z319.44° NNW
|